Weather History for Carson City, NV

Change the Weather History Date:

Sunday, January 12, 2014

  Actual Average Record
Temperature  
Mean Temperature 36 °F -  
Max Temperature 46 °F 45 °F 48 °F (2015)
Min Temperature 26 °F 20 °F 0 °F (2013)
Degree Days  
Heating Degree Days 29    
Moisture  
Dew Point 18 °F    
Average Humidity 51    
Maximum Humidity 74    
Minimum Humidity 27    
Precipitation  
Precipitation 0.00 in - - ()
Sea Level Pressure  
Sea Level Pressure 30.33 in    
Wind  
Wind Speed 10 mph (NNW)    
Max Wind Speed 26 mph    
Max Gust Speed 37 mph    
Visibility 10 miles    
Events      
Averages and records for this station are not official NWS values.
T = Trace of Precipitation, MM = Missing Value Source: NWS Daily Summary

Daily Weather History Graph

Daily Weather History Graph

Search for Another Location

Airport:

Trip Planner

Search our weather history database for the weather conditions in past years. The results will help you decide how hot, cold, wet, or windy it might be!

Date:

Astronomy

Jan. 12, 2014 Rise Set
Actual Time 7:17 AM PST 4:57 PM PST
Civil Twilight 6:48 AM PST 5:26 PM PST
Nautical Twilight 6:15 AM PST 5:59 PM PST
Astronomical Twilight 5:42 AM PST 6:32 PM PST
Moon 2:28 PM PST (1/12) 4:20 AM PST (1/12)
Length of Visible Light 10h 38m
Length of Day
9h 39m
Waxing Gibbous, 90% of the Moon is Illuminated
Jan 12
Waxing Gibbous
Jan 15
Full
Jan 23
Last Quarter
Jan 30
New
Feb 6
First Quarter

Hourly Weather History & Observations

Time (PST) Temp. Windchill Dew Point Humidity Pressure Visibility Wind Dir Wind Speed Gust Speed Precip Events Conditions
12:15 AM 39.2 °F 29.8 °F 19.4 °F 45% 30.14 in 10.0 mi West 18.4 mph 28.8 mph N/A   Partly Cloudy
12:35 AM 39.2 °F 28.5 °F 19.4 °F 45% 30.11 in 10.0 mi West 24.2 mph 36.8 mph N/A   Clear
12:55 AM 39.2 °F 28.0 °F 19.4 °F 45% 30.12 in 10.0 mi West 26.5 mph 36.8 mph N/A   Clear
1:15 AM 39.2 °F 28.7 °F 19.4 °F 45% 30.13 in 10.0 mi West 23.0 mph 32.2 mph N/A   Clear
1:35 AM 39.2 °F 30.8 °F 17.6 °F 42% 30.14 in 10.0 mi West 15.0 mph 26.5 mph N/A   Clear
1:55 AM 39.2 °F 35.9 °F 17.6 °F 42% 30.14 in 10.0 mi SSE 4.6 mph 19.6 mph N/A   Clear
2:15 AM 35.6 °F 29.2 °F 19.4 °F 52% 30.15 in 10.0 mi East 8.1 mph - N/A   Clear
2:35 AM 32.0 °F 25.6 °F 19.4 °F 60% 30.16 in 10.0 mi ENE 6.9 mph - N/A   Clear
2:55 AM 32.0 °F 28.7 °F 17.6 °F 55% 30.17 in 10.0 mi NE 3.5 mph - N/A   Clear
3:15 AM 35.6 °F 29.9 °F 19.4 °F 52% 30.17 in 10.0 mi NNE 6.9 mph - N/A   Clear
3:35 AM 32.0 °F 24.8 °F 19.4 °F 60% 30.18 in 10.0 mi NNE 8.1 mph - N/A   Clear
3:55 AM 32.0 °F 24.2 °F 19.4 °F 60% 30.17 in 10.0 mi NNW 9.2 mph - N/A   Clear
4:15 AM 32.0 °F 27.5 °F 19.4 °F 60% 30.18 in 10.0 mi SSE 4.6 mph - N/A   Clear
4:35 AM 32.0 °F 27.5 °F 19.4 °F 60% 30.18 in 10.0 mi ENE 4.6 mph - N/A   Clear
4:55 AM 28.4 °F 22.2 °F 19.4 °F 69% 30.19 in 10.0 mi NNE 5.8 mph - N/A   Clear
5:15 AM 28.4 °F - 19.4 °F 69% 30.21 in 10.0 mi Calm Calm - N/A   Clear
5:35 AM 30.2 °F - 19.4 °F 64% 30.23 in 10.0 mi Calm Calm - N/A   Clear
5:55 AM 32.0 °F 26.4 °F 19.4 °F 60% 30.25 in 10.0 mi NNW 5.8 mph - N/A   Clear
6:15 AM 28.4 °F 21.2 °F 19.4 °F 69% 30.26 in 10.0 mi NNW 6.9 mph - N/A   Clear
6:35 AM 30.2 °F 22.6 °F 19.4 °F 64% 30.27 in 10.0 mi North 8.1 mph - N/A   Clear
6:55 AM 32.0 °F 24.8 °F 19.4 °F 60% 30.27 in 10.0 mi NW 8.1 mph - N/A   Clear
7:15 AM 26.6 °F - 19.4 °F 74% 30.27 in 10.0 mi Calm Calm - N/A   Clear
7:35 AM 26.6 °F - 19.4 °F 74% 30.28 in 10.0 mi Calm Calm - N/A   Clear
7:55 AM 26.6 °F 20.0 °F 19.4 °F 74% 30.29 in 10.0 mi NE 5.8 mph - N/A   Clear
8:15 AM 26.6 °F - 19.4 °F 74% 30.31 in 10.0 mi Calm Calm - N/A   Clear
8:35 AM 28.4 °F - 19.4 °F 69% 30.32 in 10.0 mi Calm Calm - N/A   Clear
8:55 AM 30.2 °F - 21.2 °F 69% 30.33 in 10.0 mi Calm Calm - N/A   Clear
9:15 AM 32.0 °F 27.5 °F 21.2 °F 64% 30.33 in 10.0 mi WNW 4.6 mph - N/A   Clear
9:35 AM 33.8 °F - 19.4 °F 56% 30.34 in 10.0 mi Calm Calm - N/A   Clear
9:55 AM 35.6 °F - 19.4 °F 52% 30.34 in 10.0 mi Calm Calm - N/A   Clear
10:15 AM 37.4 °F 33.8 °F 19.4 °F 48% 30.35 in 10.0 mi WNW 4.6 mph - N/A   Clear
10:35 AM 37.4 °F - 19.4 °F 48% 30.36 in 10.0 mi Calm Calm - N/A   Clear
10:55 AM 39.2 °F 37.0 °F 19.4 °F 45% 30.34 in 10.0 mi WNW 3.5 mph - N/A   Clear
11:15 AM 41.0 °F 38.0 °F 19.4 °F 42% 30.35 in 10.0 mi West 4.6 mph - N/A   Clear
11:35 AM 42.8 °F 39.3 °F 19.4 °F 39% 30.34 in 10.0 mi SSW 5.8 mph - N/A   Clear
11:55 AM 42.8 °F 37.5 °F 17.6 °F 36% 30.34 in 10.0 mi NNW 9.2 mph - N/A   Clear
12:15 PM 44.6 °F 39.2 °F 15.8 °F 31% 30.34 in 10.0 mi NNW 10.4 mph - N/A   Clear
12:35 PM 44.6 °F 40.7 °F 14.0 °F 29% 30.33 in 10.0 mi North 6.9 mph - N/A   Clear
12:55 PM 44.6 °F 39.2 °F 14.0 °F 29% 30.32 in 10.0 mi WNW 10.4 mph - N/A   Clear
1:15 PM 44.6 °F 38.4 °F 14.0 °F 29% 30.32 in 10.0 mi NW 12.7 mph - N/A   Clear
1:35 PM 46.4 °F 40.4 °F 14.0 °F 27% 30.32 in 10.0 mi NW 13.8 mph 20.7 mph N/A   Clear
1:55 PM 46.4 °F 41.9 °F 14.0 °F 27% 30.33 in 10.0 mi NNW 9.2 mph - N/A   Clear
2:15 PM 46.4 °F 39.5 °F 14.0 °F 27% 30.34 in 10.0 mi NNW 17.3 mph 27.6 mph N/A   Clear
2:35 PM 46.4 °F 39.8 °F 15.8 °F 29% 30.34 in 10.0 mi NNW 16.1 mph 20.7 mph N/A   Clear
2:55 PM 44.6 °F 36.9 °F 15.8 °F 31% 30.35 in 10.0 mi NNW 18.4 mph 23.0 mph N/A   Clear
3:15 PM 44.6 °F 37.4 °F 15.8 °F 31% 30.37 in 10.0 mi NNW 16.1 mph 24.2 mph N/A   Clear
3:35 PM 44.6 °F 37.8 °F 15.8 °F 31% 30.37 in 10.0 mi NNW 15.0 mph 20.7 mph N/A   Clear
3:55 PM 44.6 °F 38.4 °F 15.8 °F 31% 30.38 in 10.0 mi NNW 12.7 mph - N/A   Clear
4:15 PM 44.6 °F 39.2 °F 17.6 °F 34% 30.38 in 10.0 mi NNW 10.4 mph 20.7 mph N/A   Clear
4:35 PM 42.8 °F 37.0 °F 17.6 °F 36% 30.39 in 10.0 mi NNW 10.4 mph - N/A   Clear
4:55 PM 41.0 °F 34.3 °F 17.6 °F 39% 30.40 in 10.0 mi NNW 11.5 mph - N/A   Clear
5:15 PM 39.2 °F 31.6 °F 17.6 °F 42% 30.41 in 10.0 mi North 12.7 mph - N/A   Clear
5:35 PM 39.2 °F 32.5 °F 17.6 °F 42% 30.43 in 10.0 mi NNW 10.4 mph - N/A   Clear
5:55 PM 39.2 °F 33.6 °F 17.6 °F 42% 30.42 in 10.0 mi NW 8.1 mph - N/A   Clear
6:15 PM 37.4 °F 31.4 °F 19.4 °F 48% 30.41 in 10.0 mi North 8.1 mph - N/A   Clear
6:35 PM 37.4 °F 30.3 °F 19.4 °F 48% 30.42 in 10.0 mi North 10.4 mph - N/A   Clear
6:55 PM 35.6 °F 31.7 °F 17.6 °F 48% 30.44 in 10.0 mi ENE 4.6 mph - N/A   Clear
7:15 PM 33.8 °F 30.8 °F 17.6 °F 52% 30.45 in 10.0 mi NE 3.5 mph - N/A   Clear
7:35 PM 32.0 °F 28.7 °F 17.6 °F 55% 30.46 in 10.0 mi NW 3.5 mph - N/A   Clear
7:55 PM 32.0 °F 28.7 °F 19.4 °F 60% 30.47 in 10.0 mi East 3.5 mph - N/A   Clear
8:15 PM 32.0 °F - 17.6 °F 55% 30.47 in 10.0 mi Calm Calm - N/A   Clear
8:35 PM 32.0 °F 28.7 °F 17.6 °F 55% 30.48 in 10.0 mi NNW 3.5 mph - N/A   Clear
8:55 PM 30.2 °F - 19.4 °F 64% 30.49 in 10.0 mi Calm Calm - N/A   Clear
9:15 PM 28.4 °F - 19.4 °F 69% 30.49 in 10.0 mi Calm Calm - N/A   Clear
9:35 PM 26.6 °F - 17.6 °F 69% 30.50 in 10.0 mi Calm Calm - N/A   Clear
9:55 PM 28.4 °F 24.6 °F 17.6 °F 64% 30.51 in 10.0 mi NW 3.5 mph - N/A   Clear
10:15 PM 32.0 °F - 17.6 °F 55% 30.50 in 10.0 mi North - - N/A   Clear
10:35 PM 30.2 °F 26.7 °F 19.4 °F 64% 30.51 in 10.0 mi ESE 3.5 mph - N/A   Clear
10:55 PM 26.6 °F - 17.6 °F 69% 30.50 in 10.0 mi Calm Calm - N/A   Clear
11:15 PM 26.6 °F 21.2 °F 17.6 °F 69% 30.51 in 10.0 mi NNW 4.6 mph - N/A   Clear
11:35 PM 26.6 °F 22.6 °F 17.6 °F 69% 30.51 in 10.0 mi NNW 3.5 mph - N/A   Clear
11:55 PM 28.4 °F 21.2 °F 17.6 °F 64% 30.52 in 10.0 mi NNW 6.9 mph - N/A   Clear